Weather History for Ohio State University, OH

Change the Weather History Date:

Thursday, February 14, 2013

  Actual Average Record
Temperature  
Mean Temperature 36 °F -  
Max Temperature 46 °F 38 °F 55 °F (2001)
Min Temperature 25 °F 24 °F 3 °F (2007)
Degree Days  
Heating Degree Days 30    
Moisture  
Dew Point 30 °F    
Average Humidity 86    
Maximum Humidity 100    
Minimum Humidity 66    
Precipitation  
Precipitation 0.00 in - - ()
Sea Level Pressure  
Sea Level Pressure 29.89 in    
Wind  
Wind Speed 9 mph (SSW)    
Max Wind Speed 21 mph    
Max Gust Speed 26 mph    
Visibility 7 miles    
Events      
Averages and records for this station are not official NWS values.
T = Trace of Precipitation, MM = Missing Value Source: NWS Daily Summary

Daily Weather History Graph

Daily Weather History Graph

Search for Another Location

Airport:

Trip Planner

Search our weather history database for the weather conditions in past years. The results will help you decide how hot, cold, wet, or windy it might be!

Date:

Astronomy

Feb. 14, 2013 Rise Set
Actual Time 7:26 AM EST 6:07 PM EST
Civil Twilight 6:58 AM EST 6:35 PM EST
Nautical Twilight 6:26 AM EST 7:06 PM EST
Astronomical Twilight 5:55 AM EST 7:38 PM EST
Moon 9:27 AM EST (2/14) 11:09 PM EST (2/14)
Length of Visible Light 11h 36m
Length of Day
10h 41m
Waxing Crescent, 21% of the Moon is Illuminated
Feb 14
Waxing Crescent
Feb 17
First Quarter
Feb 25
Full
Mar 4
Last Quarter
Mar 11
New

Hourly Weather History & Observations

Time (EST) Temp. Windchill Dew Point Humidity Pressure Visibility Wind Dir Wind Speed Gust Speed Precip Events Conditions
12:53 AM 27.0 °F 21.6 °F 25.0 °F 92% 29.90 in 5.0 mi South 4.6 mph - N/A   Clear
1:53 AM 26.1 °F 20.5 °F 24.1 °F 92% 29.90 in 4.0 mi SSE 4.6 mph - N/A   Clear
2:53 AM 25.0 °F 18.1 °F 23.0 °F 92% 29.90 in 4.0 mi SSE 5.8 mph - N/A   Mostly Cloudy
3:53 AM 25.0 °F 18.1 °F 24.1 °F 96% 29.90 in 4.0 mi South 5.8 mph - N/A   Mostly Cloudy
4:53 AM 26.1 °F 20.5 °F 25.0 °F 96% 29.90 in 5.0 mi SSE 4.6 mph - N/A   Overcast
5:53 AM 27.0 °F 18.0 °F 25.0 °F 92% 29.90 in 5.0 mi South 9.2 mph - N/A   Clear
6:26 AM 26.6 °F 18.2 °F 26.6 °F 100% 29.87 in 4.0 mi South 8.1 mph - N/A   Mostly Cloudy
6:46 AM 28.4 °F 21.2 °F 26.6 °F 93% 29.87 in 4.0 mi South 6.9 mph - N/A   Overcast
6:53 AM 28.0 °F 20.0 °F 27.0 °F 96% 29.90 in 4.0 mi South 8.1 mph - N/A   Overcast
7:53 AM 28.9 °F 21.1 °F 28.0 °F 96% 29.91 in 2.5 mi South 8.1 mph - N/A   Overcast
8:23 AM 30.2 °F 24.3 °F 28.4 °F 93% 29.88 in 2.5 mi South 5.8 mph - N/A   Overcast
8:53 AM 30.9 °F 26.2 °F 30.0 °F 96% 29.92 in 2.5 mi South 4.6 mph - N/A   Overcast
9:53 AM 34.0 °F 24.2 °F 33.1 °F 96% 29.91 in 3.0 mi SW 15.0 mph 21.9 mph N/A   Overcast
10:53 AM 34.0 °F 24.6 °F 32.0 °F 92% 29.91 in 5.0 mi SSW 13.8 mph - N/A   Overcast
11:53 AM 35.1 °F 23.8 °F 33.1 °F 92% 29.91 in 5.0 mi SSW 20.7 mph 26.5 mph N/A   Overcast
12:53 PM 35.1 °F 26.4 °F 33.1 °F 92% 29.88 in 6.0 mi South 12.7 mph 20.7 mph N/A   Overcast
1:53 PM 37.0 °F 28.5 °F 33.1 °F 86% 29.86 in 8.0 mi SSW 13.8 mph - N/A   Overcast
2:03 PM 37.4 °F 28.5 °F 33.8 °F 87% 29.83 in 8.0 mi South 15.0 mph - N/A   Overcast
2:50 PM 39.2 °F 32.0 °F 33.8 °F 81% 29.81 in 9.0 mi South 11.5 mph - N/A   Overcast
2:53 PM 39.0 °F 31.4 °F 34.0 °F 82% 29.84 in 9.0 mi South 12.7 mph 20.7 mph N/A   Overcast
3:53 PM 43.0 °F 35.7 °F 35.1 °F 74% 29.83 in 10.0 mi South 15.0 mph - N/A   Overcast
4:53 PM 46.0 °F 39.6 °F 36.0 °F 68% 29.83 in 10.0 mi SSW 15.0 mph 20.7 mph N/A   Overcast
5:02 PM 46.4 °F 40.4 °F 35.6 °F 66% 29.81 in 10.0 mi SSW 13.8 mph 24.2 mph N/A   Overcast
5:53 PM 45.0 °F 40.1 °F 36.0 °F 71% 29.84 in 10.0 mi SW 9.2 mph - N/A   Scattered Clouds
6:53 PM 43.0 °F 38.2 °F 35.1 °F 74% 29.87 in 10.0 mi SW 8.1 mph - N/A   Clear
7:53 PM 43.0 °F 36.8 °F 33.1 °F 68% 29.89 in 10.0 mi WSW 11.5 mph - N/A   Partly Cloudy
8:53 PM 39.0 °F 29.9 °F 33.1 °F 79% 29.94 in 10.0 mi WNW 17.3 mph 21.9 mph N/A   Scattered Clouds
9:53 PM 37.0 °F 28.9 °F 30.0 °F 76% 29.96 in 10.0 mi WNW 12.7 mph - N/A   Partly Cloudy
10:53 PM 34.0 °F 27.2 °F 28.9 °F 82% 29.97 in 10.0 mi WNW 8.1 mph - N/A   Clear
11:53 PM 33.1 °F 30.0 °F 27.0 °F 78% 29.98 in 10.0 mi West 3.5 mph - N/A   Clear